This is the latest recevied weather packets stored in our database for station/object SA7AHC. If no packets are shown the sender has not sent any weather packets the latest 10 day(s).
| Time | Temp. | Humidity | Pressure | Rain* | Wind** | Luminosity | Snow |
|---|---|---|---|---|---|---|---|
| 1778195524 | 1.11° C | 63% | 1021 hPa | 0 mm | - | 0 W/m² | - |
| 1778194926 | 1.67° C | 59% | 1021 hPa | 0 mm | - | 0 W/m² | - |
| 1778194326 | 2.22° C | 60% | 1020.9 hPa | 0 mm | - | 0 W/m² | - |
| 1778193727 | 2.22° C | 53% | 1020.9 hPa | 0 mm | - | 0 W/m² | - |
| 1778193127 | 2.78° C | 52% | 1020.8 hPa | 0 mm | - | 0 W/m² | - |
| 1778192524 | 2.78° C | 52% | 1020.6 hPa | 0 mm | - | 0 W/m² | - |
| 1778191927 | 3.33° C | 50% | 1020.7 hPa | 0 mm | - | 0 W/m² | - |
| 1778191324 | 3.33° C | 53% | 1020.6 hPa | 0 mm | - | 0 W/m² | - |
| 1778190710 | 3.89° C | 51% | 1020.6 hPa | 0 mm | - | 0 W/m² | - |
| 1778190106 | 3.89° C | 50% | 1020.6 hPa | 0 mm | - | 0 W/m² | - |
| 1778189506 | 3.89° C | 50% | 1020.3 hPa | 0 mm | - | 0 W/m² | - |
| 1778188898 | 4.44° C | 49% | 1020.3 hPa | 0 mm | - | 0 W/m² | - |
| 1778188295 | 4.44° C | 48% | 1020.3 hPa | 0 mm | - | 0 W/m² | - |
| 1778187695 | 5° C | 47% | 1020.2 hPa | 0 mm | - | 0 W/m² | - |
| 1778187092 | 5° C | 48% | 1020 hPa | 0 mm | - | 0 W/m² | - |
| 1778186492 | 5.56° C | 47% | 1020 hPa | 0 mm | - | 0 W/m² | - |
| 1778185897 | 5.56° C | 49% | 1019.8 hPa | 0 mm | - | 0 W/m² | - |
| 1778185294 | 5.56° C | 50% | 1019.7 hPa | 0 mm | - | 0 W/m² | - |
| 1778184697 | 6.11° C | 53% | 1019.8 hPa | 0 mm | - | 0 W/m² | - |
| 1778184094 | 6.11° C | 51% | 1019.7 hPa | 0 mm | - | 0 W/m² | - |
| 1778183492 | 6.11° C | 53% | 1019.3 hPa | 0 mm | - | 0 W/m² | - |
| 1778182888 | 6.11° C | 57% | 1019.3 hPa | 0 mm | - | 0 W/m² | - |
| 1778182287 | 6.67° C | 53% | 1019.3 hPa | 0 mm | - | 0 W/m² | - |
| 1778181683 | 7.22° C | 50% | 1019.1 hPa | 0 mm | - | 0 W/m² | - |
| 1778181086 | 7.78° C | 49% | 1019.1 hPa | 0 mm | - | 0 W/m² | - |
* Rain latest hour (hover to see other rain measurements)
** Current wind speed in m/s (hover to see current wind gust speed)